TimeEST,TemperatureF,Dew PointF,Humidity,Sea Level PressureIn,VisibilityMPH,Wind Direction,Wind SpeedMPH,Gust SpeedMPH,PrecipitationIn,Events,Conditions,WindDirDegrees,DateUTC
12:54 AM,28.0,24.1,85,30.50,10.0,Calm,Calm,-,N/A,,Clear,0,2013-01-19 05:54:00
1:54 AM,28.0,26.1,92,30.51,10.0,Calm,Calm,-,N/A,,Clear,0,2013-01-19 06:54:00
2:54 AM,25.0,23.0,92,30.51,10.0,SSW,4.6,-,N/A,,Clear,210,2013-01-19 07:54:00
3:54 AM,24.1,21.9,91,30.50,10.0,Calm,Calm,-,N/A,,Clear,0,2013-01-19 08:54:00
4:54 AM,25.0,21.9,88,30.50,9.0,Calm,Calm,-,N/A,,Clear,0,2013-01-19 09:54:00
5:54 AM,24.1,21.9,91,30.50,10.0,Calm,Calm,-,N/A,,Clear,0,2013-01-19 10:54:00
6:54 AM,24.1,21.9,91,30.50,10.0,Calm,Calm,-,N/A,,Clear,0,2013-01-19 11:54:00
7:54 AM,25.0,21.9,88,30.50,9.0,Calm,Calm,-,N/A,,Clear,0,2013-01-19 12:54:00
8:54 AM,34.0,28.9,82,30.50,9.0,NNE,3.5,-,N/A,,Clear,20,2013-01-19 13:54:00
9:54 AM,39.9,27.0,60,30.50,10.0,Calm,Calm,-,N/A,,Clear,0,2013-01-19 14:54:00
10:54 AM,45.0,27.0,49,30.47,10.0,Calm,Calm,-,N/A,,Clear,0,2013-01-19 15:54:00
11:54 AM,48.0,26.1,42,30.43,10.0,Calm,Calm,-,N/A,,Clear,0,2013-01-19 16:54:00
12:54 PM,50.0,26.1,39,30.37,10.0,Variable,4.6,-,N/A,,Clear,0,2013-01-19 17:54:00
1:54 PM,52.0,24.1,34,30.33,10.0,SSW,8.1,-,N/A,,Clear,210,2013-01-19 18:54:00
2:54 PM,54.0,25.0,33,30.30,10.0,SSW,10.4,-,N/A,,Clear,210,2013-01-19 19:54:00
3:54 PM,55.0,26.1,33,30.27,10.0,SW,6.9,-,N/A,,Clear,220,2013-01-19 20:54:00
4:54 PM,52.0,27.0,38,30.27,10.0,SSW,9.2,-,N/A,,Clear,210,2013-01-19 21:54:00
5:54 PM,46.0,28.0,50,30.27,10.0,SW,6.9,-,N/A,,Clear,220,2013-01-19 22:54:00
6:54 PM,44.1,28.9,55,30.27,10.0,Calm,Calm,-,N/A,,Clear,0,2013-01-19 23:54:00
7:54 PM,43.0,28.9,58,30.27,10.0,Calm,Calm,-,N/A,,Clear,0,2013-01-20 00:54:00
8:54 PM,37.9,30.0,73,30.26,10.0,SW,5.8,-,N/A,,Clear,220,2013-01-20 01:54:00
9:54 PM,42.1,30.0,62,30.24,10.0,WSW,5.8,-,N/A,,Clear,240,2013-01-20 02:54:00
10:54 PM,39.0,30.0,70,30.22,10.0,SW,9.2,-,N/A,,Clear,220,2013-01-20 03:54:00
11:54 PM,39.9,28.9,65,30.19,10.0,WSW,4.6,-,N/A,,Clear,240,2013-01-20 04:54:00